Blacksburg, VA

9:22 PM EST on December 11, 2017 (GMT -0500)
Virginia Tech

Weather History for KBCB - October, 2012

Change the Weather History Date:

Wednesday, October 3, 2012

  Actual Average Record
Temperature  
Mean Temperature 67 °F 56 °F  
Max Temperature 76 °F 69 °F 86 °F (1954)
Min Temperature 57 °F 44 °F 23 °F (1974)
Degree Days  
Heating Degree Days 0 9  
Month to date heating degree days 14 26  
Since 1 July heating degree days 120 157  
Cooling Degree Days 2 0  
Month to date cooling degree days 2 1  
Year to date cooling degree days 716 570  
Growing Degree Days 18 (Base 50)    
Moisture  
Dew Point 64 °F    
Average Humidity 85    
Maximum Humidity 100    
Minimum Humidity 69    
Precipitation  
Precipitation T in 0.09 in 0.97 in (1985)
Month to date precipitation 0.65 0.27  
Year to date precipitation 31.97 32.56  
Snow  
Snow 0.00 in - - ()
Month to date snowfall 0.0  
Since 1 July snowfall T  
Since 1 September snowfall 0.0  
Snow Depth 0.00 in    
Sea Level Pressure  
Sea Level Pressure 30.15 in    
Wind  
Wind Speed 1 mph (SSW)    
Max Wind Speed 6 mph    
Max Gust Speed -    
Visibility 9 miles    
Events Rain    
T = Trace of Precipitation, MM = Missing Value Source: NWS Daily Summary

Daily Weather History Graph

Daily Weather History Graph

Search for Another Location

Airport or City:

Trip Planner

Search our weather history database for the weather conditions in past years. The results will help you decide how hot, cold, wet, or windy it might be!

Date:

Astronomy

Oct. 03, 2012 Rise Set
Actual Time 7:19 AM EDT 7:01 PM EDT
Civil Twilight 6:53 AM EDT 7:27 PM EDT
Nautical Twilight 6:23 AM EDT 7:57 PM EDT
Astronomical Twilight 5:52 AM EDT 8:27 PM EDT
Moon 8:58 PM EDT (10/3) 10:35 AM EDT (10/3)
Length of Visible Light 12h 33m
Length of Day
11h 42m
Waning Gibbous, 89% of the Moon is Illuminated
Oct 3
Waning Gibbous
Oct 8
Last Quarter
Oct 15
New
Oct 21
First Quarter
Oct 29
Full

Hourly Weather History & Observations

Time (EDT) Temp. Dew Point Humidity Pressure Visibility Wind Dir Wind Speed Gust Speed Precip Events Conditions
12:15 AM 60.8 °F 60.8 °F 100% 30.05 in 2.5 mi Calm Calm - N/A   Clear
12:35 AM 60.8 °F 60.8 °F 100% 30.05 in 10.0 mi Calm Calm - N/A   Clear
12:55 AM 62.6 °F 62.6 °F 100% 30.04 in 10.0 mi Calm Calm - N/A   Clear
1:15 AM 62.6 °F 62.6 °F 100% 30.05 in 3.0 mi Calm Calm - N/A   Clear
1:35 AM 60.8 °F 60.8 °F 100% 30.06 in 7.0 mi Calm Calm - N/A   Clear
1:55 AM 60.8 °F 60.8 °F 100% 30.06 in 7.0 mi Calm Calm - N/A   Clear
2:15 AM 62.6 °F 62.6 °F 100% 30.07 in 10.0 mi Calm Calm - N/A   Clear
2:35 AM 62.6 °F 62.6 °F 100% 30.07 in 10.0 mi Calm Calm - N/A   Clear
2:55 AM 62.6 °F 62.6 °F 100% 30.07 in 10.0 mi Calm Calm - N/A   Clear
3:15 AM 60.8 °F 60.8 °F 100% 30.08 in 5.0 mi Calm Calm - N/A   Clear
3:35 AM 60.8 °F 60.8 °F 100% 30.08 in 4.0 mi Calm Calm - N/A   Clear
3:55 AM 60.8 °F 60.8 °F 100% 30.09 in 7.0 mi Calm Calm - N/A   Mostly Cloudy
4:15 AM 60.8 °F 60.8 °F 100% 30.09 in 5.0 mi Calm Calm - N/A   Mostly Cloudy
4:35 AM 60.8 °F 60.8 °F 100% 30.10 in 7.0 mi Calm Calm - N/A   Scattered Clouds
4:55 AM 60.8 °F 60.8 °F 100% 30.10 in 7.0 mi Calm Calm - N/A   Clear
5:15 AM 60.8 °F 60.8 °F 100% 30.10 in 5.0 mi Calm Calm - N/A   Clear
5:35 AM 60.8 °F 60.8 °F 100% 30.11 in 7.0 mi Calm Calm - N/A   Clear
5:55 AM 60.8 °F 60.8 °F 100% 30.11 in 5.0 mi Calm Calm - N/A   Mostly Cloudy
6:15 AM 62.6 °F 62.6 °F 100% 30.12 in 7.0 mi Calm Calm - N/A   Mostly Cloudy
6:35 AM 60.8 °F 60.8 °F 100% 30.12 in 7.0 mi Calm Calm - N/A   Mostly Cloudy
6:55 AM 60.8 °F 60.8 °F 100% 30.13 in 7.0 mi Calm Calm - N/A   Scattered Clouds
7:15 AM 60.8 °F 60.8 °F 100% 30.13 in 4.0 mi Calm Calm - N/A   Scattered Clouds
7:35 AM 60.8 °F 60.8 °F 100% 30.13 in 5.0 mi Calm Calm - N/A   Scattered Clouds
7:55 AM 60.8 °F 60.8 °F 100% 30.14 in 4.0 mi Calm Calm - N/A   Clear
8:15 AM 62.6 °F 62.6 °F 100% 30.15 in 10.0 mi SSE 3.5 mph - N/A   Mostly Cloudy
8:35 AM 62.6 °F 62.6 °F 100% 30.16 in 10.0 mi Calm Calm - N/A   Mostly Cloudy
8:55 AM 64.4 °F 64.4 °F 100% 30.16 in 10.0 mi Calm Calm - N/A   Scattered Clouds
9:15 AM 66.2 °F 64.4 °F 94% 30.17 in 10.0 mi Calm Calm - N/A   Scattered Clouds
9:35 AM 68.0 °F 66.2 °F 94% 30.17 in 7.0 mi Calm Calm - N/A   Clear
9:55 AM 69.8 °F 66.2 °F 88% 30.18 in 10.0 mi SE 3.5 mph - N/A   Clear
10:15 AM 69.8 °F 64.4 °F 83% 30.18 in 10.0 mi SSE 4.6 mph - N/A   Clear
10:35 AM 69.8 °F 64.4 °F 83% 30.18 in 10.0 mi Calm Calm - N/A   Clear
10:55 AM 71.6 °F 66.2 °F 83% 30.18 in 10.0 mi Calm Calm - N/A   Clear
11:15 AM 73.4 °F 66.2 °F 78% 30.18 in 10.0 mi Calm Calm - N/A   Clear
11:35 AM 73.4 °F 64.4 °F 73% 30.18 in 10.0 mi South 6.9 mph - N/A   Scattered Clouds
11:55 AM 75.2 °F 64.4 °F 69% 30.17 in 10.0 mi SW 5.8 mph - N/A   Scattered Clouds
12:15 PM 75.2 °F 64.4 °F 69% 30.18 in 10.0 mi SSW 5.8 mph - N/A   Mostly Cloudy
12:35 PM 73.4 °F 66.2 °F 78% 30.18 in 10.0 mi South 4.6 mph - N/A   Mostly Cloudy
12:55 PM 75.2 °F 66.2 °F 73% 30.18 in 10.0 mi WSW 4.6 mph - N/A   Scattered Clouds
1:15 PM 75.2 °F 66.2 °F 73% 30.17 in 10.0 mi West 3.5 mph - N/A   Mostly Cloudy
1:55 PM 75.2 °F 66.2 °F 73% 30.16 in 10.0 mi NW 4.6 mph - N/A   Mostly Cloudy
2:15 PM 75.2 °F 66.2 °F 73% 30.16 in 10.0 mi Calm Calm - N/A   Overcast
2:35 PM 77.0 °F 66.2 °F 69% 30.15 in 10.0 mi Calm Calm - N/A   Scattered Clouds
2:55 PM 77.0 °F 66.2 °F 69% 30.15 in 10.0 mi Calm Calm - N/A   Clear
3:15 PM 77.0 °F 66.2 °F 69% 30.15 in 10.0 mi Calm Calm - N/A   Clear
3:35 PM 77.0 °F 66.2 °F 69% 30.15 in 10.0 mi Calm Calm - N/A   Scattered Clouds
3:55 PM 77.0 °F 66.2 °F 69% 30.15 in 10.0 mi Calm Calm - N/A   Scattered Clouds
4:15 PM 75.2 °F 66.2 °F 73% 30.15 in 10.0 mi Calm Calm - N/A   Scattered Clouds
4:35 PM 75.2 °F 69.8 °F 83% 30.16 in 10.0 mi Calm Calm - N/A Rain Rain
4:55 PM 73.4 °F 66.2 °F 78% 30.16 in 10.0 mi South 4.6 mph - N/A Rain Light Rain
5:15 PM 73.4 °F 66.2 °F 78% 30.16 in 10.0 mi South 3.5 mph - N/A   Scattered Clouds
5:35 PM 73.4 °F 64.4 °F 73% 30.17 in 10.0 mi South 5.8 mph - N/A   Clear
6:15 PM 71.6 °F 66.2 °F 83% 30.18 in 10.0 mi South 4.6 mph - N/A   Mostly Cloudy
6:35 PM 71.6 °F 66.2 °F 83% 30.18 in 10.0 mi South 4.6 mph - N/A Rain Light Rain
6:55 PM 69.8 °F 66.2 °F 88% 30.19 in 10.0 mi Calm Calm - N/A   Clear
7:15 PM 69.8 °F 66.2 °F 88% 30.18 in 10.0 mi Calm Calm - N/A   Clear
7:35 PM 69.8 °F 66.2 °F 88% 30.19 in 10.0 mi Calm Calm - N/A   Clear
7:55 PM 69.8 °F 66.2 °F 88% 30.19 in 10.0 mi Calm Calm - N/A   Clear
8:15 PM 69.8 °F 64.4 °F 83% 30.20 in 10.0 mi Calm Calm - N/A   Clear
8:35 PM 66.2 °F 66.2 °F 100% 30.20 in 10.0 mi SSE 4.6 mph - N/A   Clear
8:55 PM 68.0 °F 64.4 °F 88% 30.22 in 10.0 mi Calm Calm - N/A   Clear
9:15 PM 66.2 °F 64.4 °F 94% 30.22 in 10.0 mi Calm Calm - N/A   Clear
9:35 PM 68.0 °F 64.4 °F 88% 30.22 in 10.0 mi Calm Calm - N/A   Scattered Clouds
9:55 PM 64.4 °F 64.4 °F 100% 30.22 in 10.0 mi Calm Calm - N/A   Scattered Clouds
10:35 PM 64.4 °F 64.4 °F 100% 30.22 in 10.0 mi Calm Calm - N/A   Overcast
10:55 PM 64.4 °F 64.4 °F 100% 30.23 in 10.0 mi Calm Calm - N/A   Scattered Clouds
11:15 PM 64.4 °F 64.4 °F 100% 30.24 in 10.0 mi Calm Calm - N/A   Scattered Clouds
11:35 PM 64.4 °F 62.6 °F 94% 30.24 in 10.0 mi Calm Calm - N/A   Scattered Clouds
11:55 PM 66.2 °F 62.6 °F 88% 30.24 in 10.0 mi Calm Calm - N/A   Mostly Cloudy